EA5SW-13 Weather Reports


Display with metric or nautical units.
time (UTC)temp
F
wind
direction
speed
MPH
gust
MPH
rain 1hr
in
rain 24hr
in
rain mn
in
humidity
%
barometer
mb
20260510221446 66 0.0 1.0 0.00 0.00 0.00 57
20260510220452 0 0.0 0.0 0.00 0.00 0.00
20260510215425 67 0.0 1.0 0.00 0.00 0.00 57
20260510214510 67 0 0.0 2.0 0.00 0.00 0.00 58
20260510213425 67 0.0 1.0 0.00 0.00 0.00 59
20260510212450 67 0.0 1.0 0.00 0.00 0.00 57
20260510211427 68 0.0 1.0 0.00 0.00 0.00 54
20260510210449 68 0.0 1.0 0.00 0.00 0.00 52
20260510205425 68 0.0 1.0 0.00 0.00 0.00 52
20260510204449 68 0.0 1.0 0.00 0.00 0.00 52
20260510203425 68 0.0 1.0 0.00 0.00 0.00 51
20260510203115 68 0.0 1.0 0.00 0.00 0.00 51
20260510201649 69 315 0.0 2.0 0.00 0.00 0.00 51
20260510200625 0 0.0 0.0 0.00 0.00 0.00
20260510195709 69 0.0 1.0 0.00 0.00 0.00 51
20260510194625 69 0.0 1.0 0.00 0.00 0.00 51
20260510193512 69 0.0 1.0 0.00 0.00 0.00 51
20260510191825 70 0.0 1.0 0.00 0.00 0.00 50
20260510190848 70 0.0 0.0 0.00 0.00 0.00 50
20260510183825 74 0 1.0 2.0 0.00 0.00 0.00 46
20260510183112 73 0.0 1.0 0.00 0.00 0.00 47
20260510181825 73 330 2.0 3.0 0.00 0.00 0.00 47
20260510180849 74 315 1.0 2.0 0.00 0.00 0.00 49
20260510175913 75 0.0 1.0 0.00 0.00 0.00 50
20260510174937 75 315 2.0 2.0 0.00 0.00 0.00 51
20260510173825 74 0.0 1.0 0.00 0.00 0.00 55
20260510172849 75 0.0 1.0 0.00 0.00 0.00 57
20260510171825 76 0.0 1.0 0.00 0.00 0.00 60
20260510171337 74 0.0 1.0 0.00 0.00 0.00 62
20260510165826 74 0.0 0.0 0.00 0.00 0.00 62
20260510164849 75 0.0 0.0 0.00 0.00 0.00 60
20260510163846 76 0.0 1.0 0.00 0.00 0.00 59
20260510162849 78 0.0 1.0 0.00 0.00 0.00 53
20260510161826 82 0.0 1.0 0.00 0.00 0.00 50
20260510160958 0 0.0 0.0 0.00 0.00 0.00
20260510155825 82 0.0 1.0 0.00 0.00 0.00 48
20260510154849 82 0.0 1.0 0.00 0.00 0.00 48
20260510153649 81 0.0 1.0 0.00 0.00 0.00 51
20260510152625 82 315 1.0 2.0 0.00 0.00 0.00 43
20260510151649 83 0.0 1.0 0.00 0.00 0.00 39
20260510150625 83 270 1.0 2.0 0.00 0.00 0.00 35
20260510145709 83 0.0 1.0 0.00 0.00 0.00 37
20260510144625 83 0.0 1.0 0.00 0.00 0.00 42
20260510143649 82 45 0.0 2.0 0.00 0.00 0.00 41
20260510142625 83 0.0 2.0 0.00 0.00 0.00 35
20260510141649 83 293 0.0 2.0 0.00 0.00 0.00 33
20260510140714 83 0 1.0 2.0 0.00 0.00 0.00 34
20260510135650 83 315 0.0 2.0 0.00 0.00 0.00 36
20260510134645 83 315 1.0 2.0 0.00 0.00 0.00 38
20260510133737 81 0.0 1.0 0.00 0.00 0.00 43
20260510132646 80 0.0 1.0 0.00 0.00 0.00 44
20260510131649 77 0.0 1.0 0.00 0.00 0.00 44
20260510130626 82 0.0 2.0 0.00 0.00 0.00 39
20260510125649 82 293 0.0 2.0 0.00 0.00 0.00 39
20260510124625 83 0.0 1.0 0.00 0.00 0.00 40
20260510123650 82 0.0 1.0 0.00 0.01 0.00 41
20260510122625 81 0.0 1.0 0.00 0.02 0.00 44
20260510121650 78 0.0 1.0 0.00 0.04 0.00 45
20260510120626 78 0.0 1.0 0.00 0.05 0.00 45
20260510115649 78 0.0 2.0 0.00 0.06 0.00 45
20260510114626 79 0.0 1.0 0.00 0.08 0.00 47
20260510113649 78 0.0 1.0 0.00 0.09 0.00 46
20260510112625 77 0 1.0 2.0 0.00 0.11 0.00 45
20260510111649 76 0.0 2.0 0.00 0.12 0.00 50
20260510110626 75 0.0 1.0 0.00 0.13 0.00 51
20260510105826 75 0.0 0.0 0.00 0.13 0.00 52
20260510104850 74 0.0 1.0 0.00 0.15 0.00 53
20260510103914 72 0.0 1.0 0.00 0.18 0.00 57
20260510102849 71 0.0 0.0 0.00 0.20 0.00 54
20260510101827 70 0.0 1.0 0.00 0.21 0.00 54
20260510100930 69 0.0 1.0 0.00 0.22 0.00 55
20260510095846 69 0.0 1.0 0.00 0.25 0.00 55
20260510094849 68 0.0 1.0 0.00 0.27 0.00 55
20260510093826 68 0.0 1.0 0.00 0.30 0.00 57
20260510092851 67 0.0 1.0 0.00 0.31 0.00 59
20260510091825 67 0.0 1.0 0.00 0.33 0.00 60
20260510090850 67 0.0 1.0 0.00 0.37 0.00 61
20260510085650 66 0.0 1.0 0.00 0.40 0.00 63
20260510084626 66 0.0 0.0 0.00 0.41 0.00 65
20260510083651 65 0.0 1.0 0.00 0.45 0.00 67
20260510082626 65 0.0 1.0 0.00 0.48 0.00 70
20260510081650 64 0.0 1.0 0.00 0.51 0.00 70
20260510080626 64 0.0 1.0 0.00 0.52 0.00 72
20260510075650 63 0.0 1.0 0.00 0.53 0.00 76
20260510074626 63 0.0 1.0 0.00 0.53 0.00 79
20260510073651 62 0.0 0.0 0.00 0.53 0.00 81
20260510072714 62 0.0 0.0 0.00 0.53 0.00 83
20260510071758 61 0.0 1.0 0.00 0.53 0.00 86
20260510070627 61 0.0 0.0 0.00 0.53 0.00 88
20260510065655 60 0.0 0.0 0.00 0.53 0.00 90
20260510064716 60 0.0 1.0 0.00 0.53 0.00 94
20260510063740 59 0.0 1.0 0.00 0.53 0.00 97
20260510062626 58 0.0 1.0 0.00 0.53 0.00 97
20260510061651 58 0.0 1.0 0.00 0.53 0.00 97
20260510060734 0 0.0 0.0 0.00 0.53 0.00
20260510055800 57 0.0 0.0 0.00 0.53 0.00 96
20260510054647 57 0.0 0.0 0.00 0.53 0.00 96
20260510053652 56 0.0 0.0 0.00 0.53 0.00 96
20260510052626 56 0.0 0.0 0.00 0.53 0.00 96
20260510051652 56 0.0 0.0 0.00 0.53 0.00 95
20260510050626 56 0.0 0.0 0.00 0.53 0.00 95
20260510045426 56 0.0 0.0 0.00 0.53 0.00 95
20260510044450 56 0.0 0.0 0.00 0.53 0.00 95
20260510043447 56 0.0 0.0 0.00 0.53 0.00 95
20260510042451 56 0.0 0.0 0.00 0.53 0.00 95
20260510041427 56 0.0 0.0 0.00 0.53 0.00 95
20260510040450 57 0.0 0.0 0.00 0.53 0.00 95
20260510035311 57 0.0 0.0 0.00 0.53 0.00 94
20260510034226 57 0.0 0.0 0.00 0.53 0.00 94
20260510033250 57 0.0 0.0 0.00 0.53 0.00 94
20260510032226 57 0.0 0.0 0.00 0.53 0.00 94
20260510031251 58 0.0 0.0 0.00 0.53 0.00 94
20260510030247 58 0.0 0.0 0.00 0.53 0.00 94
20260510025826 58 0.0 0.0 0.00 0.53 0.00 94
20260510024850 58 0.0 0.0 0.00 0.53 0.00 94
20260510023847 58 0.0 0.0 0.00 0.53 0.00 94
20260510022850 58 0.0 0.0 0.00 0.53 0.00 94
20260510020851 59 0.0 0.0 0.00 0.53 0.00 94
20260510015828 59 0.0 0.0 0.00 0.53 0.00 93
20260510014850 59 0.0 0.0 0.00 0.53 0.00 93
20260510013827 59 0.0 0.0 0.00 0.53 0.00 93
20260510012850 59 0.0 0.0 0.00 0.53 0.00 93
20260510011827 59 0.0 0.0 0.00 0.53 0.00 93
20260510010850 60 0.0 0.0 0.00 0.53 0.00 93
20260510005826 60 0.0 0.0 0.00 0.53 0.00 93
20260510004851 60 0.0 0.0 0.00 0.53 0.00 93
20260510003827 60 0.0 0.0 0.00 0.53 0.00 92
20260510002850 60 0.0 0.0 0.00 0.53 0.00 92
20260510001827 61 0.0 0.0 0.00 0.53 0.00 92
20260510000851 61 0.0 1.0 0.00 0.53 0.00 92
20260509235827 61 0.0 0.0 0.00 0.53 0.00 92
20260509234851 61 0.0 0.0 0.00 0.53 0.00 91